Home > Weather > Riga > Past weeks

Flag for Latvia Weather for the Past 2 Weeks in Riga, Latvia

Now
52 °F

Sunny.


Feels Like: 49 °F
Forecast: 43 / 57 °F
Wind: 8 mph from North

Location: Riga Airport

Current Time: May 1, 2016 at 9:06:26 PM

Latest Report: May 1, 2016 at 8:20 PM


Visibility: 10 mi

Pressure: 30.27 "Hg

Humidity: 62%

Dew Point: 39 °F

Location of RigaLocation

Historic Weather in Riga — Graph

°F

Riga Temperature Yesterday

Maximum temperature yesterday: 61 °F (at 1:20 PM)
Minimum temperature yesterday: 32 °F (at 2:20 AM)
Average temperature yesterday: 48 °F

High & Low Weather Summary for the Past Weeks

 TemperatureHumidityPressure
High63 °F (Apr 28, 12:50 PM)100% (Apr 20, 2:50 AM)30.30 "Hg (Apr 20, 2:50 AM)
Low28 °F (Apr 24, 1:20 AM)29% (Apr 21, 12:50 PM)29.47 "Hg (Apr 24, 5:20 PM)
Average44 °F77%29.84 "Hg
* Reported Apr 16 7:20 PM — May 1 7:50 PM, Riga, Weather by CustomWeather, © 2016

Note: Actual official high and low records may vary slightly from our data, if they occured in-between our weather recording intervals... More about our weather records

Advertising

Riga Weather History for the Previous 24 Hours

Scroll right to see more
 ConditionsComfort  
Time TempWeatherWind HumidityBarometerVisibility
7:50 PM
Sun, May 1
54 °FSunny.6 mph54%30.27 "Hg10 mi
7:20 PM54 °FSunny.7 mph54%30.24 "Hg10 mi
6:50 PM55 °FSunny.10 mph51%30.24 "Hg10 mi
6:20 PM55 °FSunny.10 mph51%30.24 "Hg10 mi
5:50 PM55 °FSunny.8 mph51%30.24 "Hg10 mi
5:20 PM55 °FSunny.8 mph55%30.24 "Hg10 mi
4:50 PM59 °FPassing clouds.9 mph45%30.24 "HgN/A
4:20 PM61 °FSunny.9 mph39%30.24 "Hg10 mi
3:50 PM59 °FSunny.9 mph42%30.27 "Hg10 mi
3:20 PM59 °FPassing clouds.10 mph42%30.27 "HgN/A
2:50 PM61 °FPassing clouds.6 mph39%30.27 "HgN/A
2:20 PM61 °FPassing clouds.7 mph36%30.27 "HgN/A
1:50 PM61 °FPassing clouds.9 mph34%30.27 "HgN/A
1:20 PM61 °FSunny.6 mph39%30.27 "Hg10 mi
12:50 PM59 °FPassing clouds.8 mph45%30.27 "HgN/A
12:20 PM59 °FPassing clouds.9 mph45%30.27 "HgN/A
11:50 AM59 °FScattered clouds.9 mph48%30.30 "HgN/A
11:20 AM59 °FScattered clouds.9 mph45%30.27 "HgN/A
10:50 AM59 °FScattered clouds.10 mph48%30.30 "HgN/A
9:50 AM55 °FPassing clouds.8 mph59%30.30 "HgN/A
9:20 AM54 °FPassing clouds.8 mph63%30.30 "HgN/A
8:50 AM50 °FPassing clouds.6 mph71%30.30 "HgN/A
8:20 AM48 °FPassing clouds.3 mph71%30.30 "HgN/A
7:20 AM46 °FSunny.6 mph71%30.30 "Hg10 mi
6:50 AM45 °FSunny.7 mph71%30.30 "Hg10 mi
6:20 AM45 °FPassing clouds.6 mph71%30.30 "HgN/A
5:20 AM37 °FClear.2 mph87%30.30 "Hg10 mi
4:50 AM43 °FClear.3 mph71%30.30 "Hg10 mi
4:20 AM45 °FClear.3 mph66%30.30 "Hg10 mi
3:50 AM46 °FClear.6 mph62%30.30 "Hg10 mi
3:20 AM48 °FPassing clouds.5 mph58%30.30 "HgN/A
2:50 AM48 °FPassing clouds.5 mph58%30.30 "HgN/A
2:20 AM48 °FClear.7 mph58%30.30 "Hg10 mi
1:50 AM48 °FClear.7 mph58%30.27 "Hg10 mi
1:20 AM48 °FClear.7 mph58%30.27 "Hg10 mi
12:50 AM50 °FClear.5 mph54%30.27 "Hg10 mi
12:20 AM50 °FClear.6 mph54%30.27 "Hg10 mi
11:50 PM
Sat, Apr 30
48 °FClear.6 mph62%30.27 "Hg10 mi
11:20 PM45 °FClear.6 mph71%30.27 "Hg10 mi
10:50 PM43 °FClear.6 mph76%30.27 "Hg10 mi
10:20 PM45 °FClear.7 mph71%30.27 "Hg10 mi
9:50 PM48 °FSunny.10 mph62%30.27 "Hg10 mi
9:20 PM50 °FSunny.15 mph54%30.27 "Hg10 mi
Weather by CustomWeather, © 2016

See weather overviewHow to use our weather pages